DECAYED

STARLINK-2012, 47635 (Decayed)

Orbit data source: Space-Track

STARLINK-2012, 47635 was a payload satellite owned by SpaceX/Seattle (US) in LEO that was launched on Tue, 16 Feb 2021 UTC via an FALCON 9 launch vehicle from the Air Force Eastern Test Range (AFETR). Payload-class satellites include a variety of spacecraft equipped with specific instruments for various scientific and technological missions. These include communications satellites like Starlink; space stations such as the ISS; scientific satellites like the Hubble; Earth observation satellites from companies like Planet Labs, Umbra, and HawkEye 360; GPS; miniature CubeSats for education and research; and military/defense satellites.

Not visible in the next 10 days
Identifier
47635, 2021-012R
Orbit
Decayed
Country
Flag of USUS
Related business
Manufacturer
SpaceX/Seattle
Mission
Decayed Commercial Communications
Bus & Motor
STARLINK, Unknown motor
Mass
260 kg wet, ~248 kg dry
Launch date (UTC)
2021-02-16 (5 years ago)
Launch vehicle
FALCON 9
Launch site
Air Force Eastern Test Range (AFETR)
Object type
Payload
Rocket body
Debris
Shape & HBR
Box + 1 Pan, 10.1 m
Radar Cross Section
13.562 m², Large (>1 m²)

Expand to show TLE details & history
Last TLE update: 1 year ago

TLE from 1 year ago
0 STARLINK-2012
1 47635U 21012R   25027.34408333  .15207032  12388-4  80968-3 0  9995
2 47635  53.0205 329.1414 0002600 170.4184 330.1905 16.42489119219984
Epoch: 2025-01-27T08:15Z
TLE epoch observation values (Epoch: 2025-01-27T08:15:28.799Z)
Latitude
30.57218°
Longitude
-127.84243°
Altitude
159.494 km
Speed
7.816 km/s
True Right ascension
08h 11m 34s
True Declination
30° 24' 29"
Sunlit
Object was in full shadow at epoch
Visualization orbit readout
Latitude
Unknown
Longitude
Unknown
Altitude
Unknown
Speed
Unknown
Apparent Right ascension
Unknown
Apparent Declination
Unknown
Sunlit
N/A
Visualization observer readout
Local Sidereal Time
21:38:56
Azimuth
Unknown
Elevation
Unknown
Doppler factor
Unknown
Orbital elements
Apogee altitude
161.181 km
Perigee altitude
157.782 km
Semi-major axis
6,537.619 km
Eccentricity
0.00026
Inclination
53.0205°
RAAN
329.1414°
Arg. of periapsis
170.4184°
True anomaly
330.17568°
Mean anomaly
330.1905°
Eccentric anomaly
330.18309°
Mean motion
4.10595 °/min
Orbital period
87.68 mins
BSTAR
0.00080968
Loading maneuver chart data...
Computing Atmospheric mass density...

Documentation

Showing up to 5 results
|